Wind_Speed
14 15 14 14 15 16 16 17 19 22 27 30 32 36 36 36 37 37 36 38 39 37 38 38 37 37 37 37 37 37 36 35 34 34 35 35 32 32 33 32 32 31 31 31 32 32 31 31 32 30 27 27 27 26 23 21 22 20 16 18 19 17 15
14 13 14 13 14 15 16 17 18 22 27 29 31 34 36 36 37 37 37 38 40 39 39 39 38 37 37 37 37 37 37 36 36 35 35 36 33 32 34 34 34 33 32 32 33 33 32 32 32 31 29 28 27 25 23 23 23 21 19 19 19 17 15
15 15 15 14 14 15 16 16 18 23 28 29 30 33 36 37 37 37 37 38 39 39 39 39 39 38 37 36 37 38 38 37 37 37 37 37 34 32 34 35 35 34 33 33 33 32 33 33 33 32 31 30 28 25 25 25 24 22 20 20 19 18 17
17 18 17 16 16 16 16 16 18 22 28 31 33 35 37 38 37 37 37 39 40 39 39 40 39 39 38 37 37 37 38 38 38 39 39 37 35 33 35 36 35 34 34 34 33 32 32 33 34 34 32 30 28 27 26 25 24 23 21 20 20 20 19
20 19 17 16 17 16 15 16 17 21 27 31 34 35 36 38 37 37 37 38 40 41 41 41 40 39 39 38 37 37 39 40 39 40 39 37 35 35 36 37 36 35 35 35 34 33 33 32 32 34 34 31 29 29 27 25 24 24 22 21 20 21 22
19 18 17 16 17 17 17 18 19 24 29 31 33 34 34 36 37 36 36 37 39 39 40 40 40 40 39 39 37 36 38 40 40 40 40 38 37 36 37 38 37 36 36 36 35 35 35 33 31 34 35 33 31 30 28 26 25 24 23 22 20 21 22
19 18 17 18 17 17 18 19 19 25 30 31 31 32 33 36 37 37 36 36 37 38 39 40 40 40 39 38 38 37 39 40 41 41 40 39 38 37 37 38 38 37 36 36 36 36 37 36 34 34 35 34 32 30 29 28 26 25 24 24 23 22 22
19 18 17 18 18 17 18 18 17 21 26 27 28 30 33 36 37 36 36 36 37 38 39 40 40 40 39 39 39 39 40 40 41 41 40 40 38 37 38 38 39 39 37 36 37 37 37 37 36 35 35 34 32 31 30 29 28 26 25 26 26 25 24
17 18 18 19 19 18 17 17 16 18 23 27 29 31 33 35 36 37 37 37 36 37 38 39 39 40 39 39 40 41 41 40 40 41 40 39 39 39 39 39 39 40 38 37 38 38 37 37 37 37 36 35 34 33 33 32 30 29 28 28 28 28 26
16 18 19 19 19 18 16 15 14 15 17 21 26 29 33 35 36 37 37 37 37 37 39 39 38 39 39 40 41 41 41 41 41 41 40 39 39 40 41 40 40 40 39 38 38 38 37 37 37 37 37 36 36 36 35 34 33 32 31 29 29 29 29
16 18 19 20 19 17 15 13 13 14 13 16 22 26 30 34 35 36 37 38 37 37 38 38 38 38 40 40 40 40 41 42 42 42 41 40 40 41 41 41 40 40 40 40 39 38 38 38 37 37 38 38 38 38 37 36 35 34 32 31 30 30 30
16 17 18 19 17 15 14 13 13 14 13 15 21 25 28 32 34 35 37 38 37 37 37 38 37 38 40 41 40 40 41 42 43 43 42 42 41 41 41 41 41 41 41 40 40 39 38 38 38 39 39 39 39 39 37 35 35 35 34 32 31 31 30
16 17 16 16 15 14 14 14 15 16 15 16 22 26 28 31 33 34 35 37 38 37 37 37 37 38 39 41 41 41 41 43 44 44 43 42 42 42 42 42 41 41 42 41 40 38 38 38 38 39 39 39 39 38 37 35 34 35 34 34 33 32 31
18 17 15 14 14 16 16 16 15 16 15 16 21 24 26 29 32 34 35 36 37 36 36 37 38 38 39 40 41 41 42 44 45 45 43 43 43 42 42 42 41 41 41 41 40 39 38 38 38 38 38 38 38 37 36 35 34 35 35 35 34 33 32
14 15 14 13 14 16 16 16 15 15 14 15 18 21 23 25 29 31 33 35 37 37 37 38 38 38 38 39 41 42 43 44 44 44 43 43 43 43 42 42 41 39 38 39 40 39 38 37 37 36 36 37 36 35 36 36 36 36 37 37 36 35 34
13 14 14 14 15 16 16 16 15 14 14 14 15 18 22 25 29 32 34 36 38 38 38 39 40 39 39 39 42 44 44 44 43 43 43 43 44 44 42 40 39 38 38 39 40 39 36 34 34 34 35 35 35 35 35 36 37 37 38 38 37 36 35
12 13 12 12 12 13 13 14 14 14 14 13 15 19 23 26 30 33 34 36 38 38 39 40 40 41 40 41 42 43 43 43 43 42 43 43 43 42 40 39 38 37 37 38 39 38 35 33 32 33 34 34 34 34 35 36 36 37 38 39 38 36 35
12 14 15 15 14 13 14 15 15 15 15 15 17 22 25 28 30 32 33 36 39 40 40 40 41 41 42 42 42 42 43 43 43 43 43 43 41 40 39 38 37 37 35 34 35 36 34 32 33 33 33 33 33 34 35 36 37 37 37 36 35 33 31
12 11 13 14 15 16 16 15 15 16 16 17 20 26 30 32 31 32 36 39 41 40 39 39 40 41 41 42 42 43 43 43 43 42 42 41 40 38 38 37 36 37 36 33 32 32 32 32 32 32 32 32 32 33 34 36 36 35 34 33 30 28 27
10 10 12 15 16 17 16 14 13 15 18 22 26 31 35 35 35 38 40 41 40 40 40 40 39 39 40 42 44 44 45 44 43 42 41 40 39 37 36 37 37 37 35 32 29 29 29 29 29 30 31 32 31 32 33 34 33 31 32 32 29 27 28
9 11 14 16 16 16 17 17 15 15 17 23 29 31 33 34 36 37 38 38 38 39 41 40 39 39 41 43 44 45 45 44 44 43 41 39 38 37 36 36 35 34 32 30 28 28 27 27 28 30 31 31 32 32 31 32 31 30 30 31 29 28 31
9 9 11 14 15 15 16 17 17 18 21 25 29 29 30 33 36 35 34 36 37 39 41 41 38 38 40 43 45 46 46 46 44 42 39 38 37 37 36 35 34 32 30 28 28 28 29 28 29 29 30 31 32 32 31 31 31 30 29 30 28 27 31
7 7 8 10 12 15 17 19 21 23 25 26 27 28 30 33 35 34 32 34 36 37 39 39 37 37 40 43 46 47 47 46 43 40 38 38 38 36 36 35 32 30 29 29 29 29 30 28 26 27 29 31 32 33 33 32 31 29 29 29 28 28 32
7 9 9 9 10 13 17 21 24 25 26 26 26 30 33 34 35 33 31 32 35 36 36 36 37 39 41 43 47 48 47 45 42 39 38 38 37 37 35 33 30 30 31 32 32 31 30 29 27 27 29 31 32 33 31 29 28 27 27 28 28 30 33
10 9 8 8 10 12 16 24 28 29 29 27 27 31 34 35 35 33 30 32 35 34 33 35 38 41 43 45 46 46 44 42 41 40 39 38 37 35 34 31 30 31 32 32 32 30 28 28 28 28 28 29 30 29 26 25 25 25 26 26 27 30 33
4 4 4 2 4 11 19 25 25 23 23 25 30 35 38 37 34 31 29 33 35 33 34 38 43 46 46 44 43 42 42 41 41 40 39 37 36 34 33 32 32 32 32 31 31 29 27 27 27 28 28 28 27 26 23 22 22 23 24 26 27 29 32
6 6 8 10 8 3 16 23 20 18 21 26 30 33 33 32 29 27 31 32 29 31 39 44 45 44 42 39 38 39 40 40 40 40 39 37 36 34 33 33 33 32 31 30 29 28 27 28 28 27 26 26 24 23 22 21 21 22 23 25 27 29 31
10 10 11 16 19 12 4 14 17 19 24 30 35 36 35 32 27 25 28 28 28 36 44 43 40 38 36 36 37 37 38 38 39 39 38 37 37 34 32 32 31 31 29 27 28 29 28 27 26 25 25 25 23 21 22 21 20 20 23 25 26 28 30
12 11 10 11 15 16 11 4 1 0 1 4 12 18 22 25 26 26 23 22 29 38 37 32 33 34 33 33 34 34 36 38 39 38 37 36 36 34 32 30 30 29 29 28 28 28 25 23 24 26 27 25 23 22 23 21 17 17 21 23 25 27 30
14 14 12 11 12 14 14 10 8 11 18 20 16 11 9 9 9 14 21 26 32 34 29 29 32 32 32 33 33 34 35 36 37 37 37 36 36 34 32 32 31 29 28 28 27 26 25 25 26 27 26 24 23 23 22 19 15 15 17 20 23 26 28
11 11 12 13 14 15 12 11 10 12 16 21 22 17 15 20 22 18 14 16 22 21 20 23 23 23 25 27 29 31 33 34 35 36 36 36 36 35 33 32 31 28 26 27 27 27 26 26 26 26 25 24 24 23 21 18 16 16 16 17 20 23 26
9 10 10 11 13 15 11 11 12 11 13 18 24 23 20 23 27 24 19 8 21 31 31 30 27 24 22 21 22 23 25 26 27 28 30 32 33 33 32 31 30 27 25 26 26 25 25 25 24 24 25 25 25 24 22 20 19 19 18 18 21 22 23
9 9 9 9 11 12 11 9 9 10 11 14 19 24 26 28 30 26 20 17 23 35 41 41 35 28 23 21 21 22 23 24 25 25 26 27 28 28 28 28 28 26 24 23 23 22 23 23 22 23 24 24 24 24 23 22 23 22 22 22 22 21 21
7 8 9 11 13 13 10 7 7 9 11 13 17 23 28 29 29 25 21 20 21 26 34 39 39 34 30 26 25 26 27 28 28 27 26 26 26 27 27 27 27 25 23 22 22 22 22 21 21 22 23 23 24 25 23 23 25 25 23 22 21 21 21
5 6 8 11 14 15 13 9 8 11 13 14 17 21 25 27 26 22 19 19 19 18 21 26 31 33 33 31 28 28 29 29 28 28 28 28 29 28 26 26 27 26 24 22 22 22 22 21 20 20 20 20 23 26 24 23 24 25 22 20 20 20 20
4 4 7 9 11 13 13 11 9 10 12 16 18 20 23 26 26 21 14 12 14 17 20 22 22 24 28 29 27 27 28 27 26 27 29 31 31 29 25 23 23 24 23 22 22 22 21 19 18 18 17 17 20 24 25 23 23 23 20 18 17 16 16
8 6 8 9 9 8 10 11 12 10 7 12 16 18 21 25 26 23 19 18 18 21 25 25 21 20 23 25 26 26 27 25 25 26 28 30 31 31 28 25 23 21 21 22 23 23 21 19 17 15 15 16 17 21 24 24 22 21 20 17 15 13 12
13 12 10 11 10 9 8 11 12 12 9 6 10 12 16 23 27 26 26 27 27 26 26 26 23 21 21 22 25 26 25 24 25 26 26 27 28 30 31 30 26 22 21 22 23 23 22 20 18 15 14 13 13 16 22 25 23 20 19 16 14 12 11
Wind_Direction
185 181 180 177 179 183 183 183 184 184 185 186 188 189 188 189 188 188 188 189 190 191 191 192 193 195 196 196 196 196 196 196 196 197 199 202 205 200 193 193 197 198 195 192 192 193 192 188 188 192 193 190 186 182 180 180 182 187 184 177 176 181 187
187 185 182 178 177 181 184 184 182 183 186 187 187 188 189 190 189 187 187 187 188 189 190 192 193 195 196 196 196 195 195 196 197 199 201 203 205 201 196 198 199 199 198 197 196 195 193 189 190 194 192 187 184 185 188 185 182 185 185 179 176 179 186
188 188 186 183 178 179 180 182 183 185 187 186 186 188 190 191 190 188 186 185 187 188 189 191 192 194 196 196 195 195 195 196 197 199 202 203 203 202 201 201 201 200 200 200 198 196 194 192 193 195 193 190 191 194 195 190 187 189 190 189 186 182 185
189 189 189 185 182 184 181 180 184 186 187 187 187 189 190 190 189 188 187 186 186 186 187 190 191 193 196 196 196 195 195 196 198 201 203 202 201 202 202 200 200 201 201 200 199 196 194 194 195 194 194 194 195 196 195 192 192 195 196 198 196 192 192
187 188 189 186 186 189 186 183 187 187 188 189 188 189 188 188 188 188 187 186 186 187 188 189 191 193 195 197 197 196 197 198 200 202 203 202 201 201 201 200 200 201 201 200 200 198 195 196 196 195 195 195 194 193 194 195 195 197 199 201 201 199 199
187 187 187 188 189 190 189 190 191 190 190 189 188 188 185 185 187 187 187 186 186 187 188 189 191 193 195 196 197 198 198 199 200 202 203 201 201 201 200 201 201 202 201 201 200 199 198 197 194 193 194 194 191 191 194 197 197 198 200 200 201 200 201
186 188 188 188 189 189 190 194 195 193 192 189 186 184 182 184 187 187 187 186 185 186 186 189 191 193 194 195 197 198 200 199 200 202 203 202 202 201 200 202 203 203 202 201 199 198 198 198 195 192 192 192 192 193 195 197 197 199 200 199 200 203 203
183 185 187 186 188 190 190 194 196 191 188 186 184 183 182 184 185 186 187 187 186 186 188 190 191 192 194 194 197 200 201 200 200 201 203 202 202 202 201 202 202 202 201 200 199 199 199 199 199 197 195 194 196 196 197 199 200 199 199 198 200 204 204
180 180 183 183 186 189 190 195 195 186 182 183 185 185 184 183 184 185 186 185 186 188 190 192 192 193 193 194 197 200 201 200 200 202 202 201 202 203 203 202 202 201 201 200 200 200 200 200 200 201 200 199 199 199 199 201 201 200 199 199 200 203 205
178 180 181 183 186 188 190 190 185 181 180 182 186 185 183 182 183 184 184 185 188 190 191 192 193 192 193 195 198 200 200 201 201 202 202 201 202 203 204 204 203 202 202 201 201 201 200 201 201 201 200 199 198 199 200 201 201 200 200 202 203 205 209
175 180 181 185 186 184 182 176 173 180 182 183 186 184 180 180 181 182 183 186 188 190 191 192 193 192 193 195 197 199 201 202 202 203 203 201 202 204 204 205 204 204 203 203 202 202 201 201 201 201 200 200 200 200 201 201 201 199 200 203 205 208 211
173 178 180 182 180 177 174 171 174 181 181 182 186 184 181 179 180 181 183 186 188 189 190 191 192 192 194 195 197 199 201 202 203 204 203 202 203 204 204 205 205 204 204 204 204 203 202 202 202 202 202 203 203 202 202 202 201 200 200 202 204 207 211
172 175 176 173 171 172 173 173 179 183 183 185 186 185 183 180 180 180 182 186 189 188 188 190 192 193 194 196 197 199 201 202 203 204 204 203 204 204 205 205 205 205 205 205 205 204 203 203 203 204 204 204 204 204 203 201 201 201 201 202 203 206 209
170 169 167 165 166 170 171 174 181 184 185 186 185 184 183 181 181 180 181 185 187 188 187 188 191 193 195 196 198 201 202 203 204 205 204 204 204 205 206 206 205 206 205 204 205 206 205 204 204 204 204 205 205 204 203 202 201 201 201 202 204 206 208
160 159 156 159 163 163 168 175 180 182 182 181 181 181 180 181 181 180 182 185 187 188 188 188 190 194 195 196 199 202 203 203 204 205 204 204 205 206 207 207 206 206 205 205 207 208 207 207 205 204 203 204 204 203 202 202 202 203 202 201 202 205 207
157 162 160 162 165 164 169 176 178 180 181 178 178 179 178 180 181 181 183 186 188 188 187 187 190 194 195 197 199 202 204 204 204 204 204 204 206 206 206 206 205 205 205 206 208 208 208 207 205 204 203 203 202 201 202 203 204 205 205 203 202 203 204
155 162 162 163 166 169 173 178 179 180 181 181 181 180 180 181 183 184 185 186 188 189 188 188 191 193 196 197 199 201 203 204 204 205 205 205 205 206 205 205 205 205 205 206 207 207 206 205 204 204 205 204 202 202 203 205 206 207 207 206 204 204 204
165 171 174 173 173 177 180 182 185 183 182 186 186 183 184 184 184 185 186 187 190 190 189 189 191 193 196 197 198 200 202 204 204 205 205 205 205 204 204 204 204 204 204 204 204 203 202 203 204 205 205 204 202 203 206 209 210 210 209 207 207 208 207
175 179 185 181 178 184 187 187 187 186 185 188 189 188 189 187 185 187 188 190 191 189 189 191 193 194 195 196 197 200 202 203 204 205 205 205 204 203 202 202 203 203 204 203 200 197 198 201 204 204 204 203 203 205 208 213 214 212 209 205 204 210 213
175 177 193 195 186 185 189 191 191 190 190 191 191 193 193 190 188 190 192 191 190 188 189 193 195 195 195 195 197 200 201 203 204 204 205 204 202 201 200 202 203 204 204 201 195 192 193 196 201 204 204 204 204 206 210 213 213 212 211 203 198 208 220
198 178 184 195 194 189 188 190 192 192 192 194 195 194 194 193 193 193 193 191 189 189 191 193 195 196 195 196 198 199 201 202 203 204 203 200 199 199 200 201 202 203 201 197 191 188 189 195 201 204 203 203 205 206 210 213 213 215 213 202 196 207 222
212 189 182 188 192 195 193 190 190 191 191 194 196 195 193 194 195 194 192 191 190 191 193 194 195 196 196 196 198 200 200 201 202 201 199 196 195 197 198 199 200 198 192 186 185 187 192 199 203 202 201 203 206 208 211 215 217 216 211 203 202 209 219
202 197 199 192 186 191 197 195 191 189 188 189 192 194 194 195 195 193 192 192 192 193 195 195 197 197 197 197 199 200 200 200 199 196 194 193 193 193 196 197 194 188 180 176 178 184 191 197 199 202 204 204 207 210 212 213 214 212 209 209 210 209 212
255 226 218 211 194 184 187 192 193 190 188 188 191 194 195 195 194 192 191 192 194 195 196 197 199 199 199 200 200 200 199 198 195 192 189 189 190 190 191 190 185 179 178 178 177 182 189 192 194 200 204 205 208 211 210 208 207 206 207 210 209 206 209
301 270 243 228 217 204 194 190 190 190 189 189 191 194 196 195 193 191 191 193 195 196 197 199 200 200 202 202 200 198 196 194 190 188 186 185 186 186 184 181 177 177 181 181 180 183 189 192 193 196 199 204 206 205 202 201 201 202 202 203 203 205 210
349 329 320 303 225 211 205 198 192 189 191 192 193 194 195 195 192 190 192 195 196 196 200 202 201 201 203 203 198 193 190 188 185 183 181 180 180 179 177 176 175 176 178 179 180 182 184 187 190 192 195 199 200 197 197 199 199 198 199 200 201 204 207
29 23 5 0 14 134 189 195 191 187 189 193 195 196 196 194 193 192 194 195 196 199 203 204 203 202 200 196 191 186 183 182 179 176 175 175 174 172 173 174 175 174 175 176 177 177 177 182 186 188 189 191 192 192 197 202 202 201 201 202 203 204 207
11 18 16 5 4 16 160 191 194 193 194 196 197 196 195 194 195 197 197 197 199 203 206 205 201 196 192 186 181 177 175 173 172 170 170 171 170 168 170 172 173 174 173 173 175 176 177 179 178 175 173 176 181 185 189 196 203 204 203 205 207 207 208
3 4 17 17 6 9 22 51 156 253 328 230 206 200 200 201 202 199 195 198 204 204 203 199 191 183 178 173 168 165 166 165 164 164 164 166 167 166 165 167 169 171 173 173 175 176 176 173 169 165 164 167 172 178 182 186 193 200 202 205 209 209 210
12 5 3 2 1 15 35 47 36 31 28 21 15 11 355 329 278 228 208 201 202 200 188 179 176 169 161 159 157 156 157 156 156 158 159 160 161 159 159 162 166 168 170 171 170 167 164 164 163 161 161 160 160 165 173 178 185 194 198 200 204 207 209
23 20 9 1 2 14 42 62 53 45 43 34 31 33 25 18 10 338 283 215 180 163 147 143 143 139 137 140 142 144 147 149 150 152 153 154 156 155 155 158 160 160 162 164 162 160 159 160 159 157 156 153 152 158 168 178 187 192 193 194 198 201 205
25 23 19 14 6 5 24 58 62 59 56 45 44 49 51 55 53 29 358 30 113 114 108 100 92 89 95 104 112 122 128 129 132 137 142 147 151 150 150 152 151 151 155 158 159 160 161 160 157 154 152 151 153 161 171 181 188 191 192 194 197 199 202
23 21 23 27 18 11 19 44 56 65 66 55 54 62 66 70 75 69 48 53 92 109 112 110 105 99 97 101 110 118 120 121 126 133 138 141 142 142 142 144 145 145 147 150 153 155 157 157 153 150 151 153 156 163 173 181 186 189 190 192 197 200 202
11 18 23 27 29 31 34 40 51 68 74 67 65 73 78 80 82 82 75 73 86 101 110 117 122 125 126 131 136 137 137 139 142 141 136 133 134 135 136 139 144 143 143 147 151 152 152 154 154 154 156 158 160 164 169 175 182 188 191 192 195 197 199
0 21 30 32 36 41 46 52 61 74 88 95 91 87 88 92 95 95 89 90 101 111 114 120 129 135 138 142 144 143 143 143 141 137 131 128 129 130 132 139 147 148 145 147 154 157 157 160 164 168 169 167 167 169 170 174 184 192 195 196 195 196 200
7 30 42 43 43 43 44 44 48 70 98 115 113 104 102 107 111 114 113 111 120 127 126 125 129 134 137 139 139 138 137 136 134 133 131 129 126 123 121 128 140 146 146 149 155 161 164 166 171 178 181 181 179 177 180 190 197 197 194 194 195 197 204
28 36 36 36 37 37 39 31 16 17 62 106 115 117 123 126 128 135 148 157 157 149 141 138 139 139 136 135 136 136 134 132 131 130 130 130 128 125 122 122 126 135 143 148 155 161 165 167 168 170 177 188 189 185 189 200 202 192 184 184 187 190 198
32 39 34 27 21 13 26 43 34 14 13 72 119 130 128 126 129 138 148 154 157 155 150 147 145 141 134 130 131 133 133 131 132 133 131 131 131 130 129 127 123 123 128 137 149 157 161 162 160 153 155 171 182 184 188 192 192 185 178 177 180 183 186
Height
690 692 693 695 698 701 703 705 707 711 715 719 722 726 731 734 737 741 745 749 754 758 762 765 768 771 774 776 779 781 784 786 788 790 791 792 793 795 797 799 799 801 803 805 806 808 811 813 815 816 818 819 821 823 824 825 826 827 828 829 830 831 832
687 689 689 691 694 697 698 699 702 706 710 714 718 722 726 729 732 736 740 744 749 753 758 761 764 768 771 774 776 778 781 783 785 787 788 789 791 793 794 795 796 798 801 803 805 807 809 811 812 814 816 818 819 821 822 823 824 825 826 827 829 830 831
683 685 685 686 688 691 693 695 698 701 704 708 713 717 720 724 728 732 736 740 745 749 754 757 761 764 768 771 774 776 778 779 781 782 783 785 787 790 791 793 794 796 798 800 803 805 807 808 810 812 814 816 818 819 820 821 822 823 824 826 827 829 830
678 678 678 680 682 684 687 689 692 695 698 703 706 710 715 720 725 729 733 736 740 745 748 752 756 760 764 768 770 773 774 775 777 778 779 782 785 787 788 790 792 794 796 798 801 803 805 806 808 810 812 814 815 817 818 819 820 821 822 824 826 828 829
672 672 674 677 678 680 682 684 687 689 693 697 701 706 711 717 722 726 730 733 736 740 743 748 752 756 760 764 767 769 770 771 773 774 776 779 781 783 785 787 789 790 793 795 798 800 802 804 805 807 810 811 813 814 816 817 818 819 820 822 824 826 828
666 667 670 672 673 675 676 678 680 683 688 692 696 702 707 713 718 722 726 730 733 737 741 744 748 751 756 760 763 766 767 768 769 770 773 775 778 780 782 784 786 787 790 792 795 797 799 801 802 804 806 808 810 811 813 814 816 817 819 820 822 823 825
658 660 663 665 667 669 671 673 675 678 684 688 693 699 703 708 713 717 722 726 729 733 737 740 743 747 751 756 759 762 763 764 765 767 769 772 775 777 778 780 782 784 787 789 792 794 796 798 800 801 803 805 806 808 810 811 813 815 817 818 820 821 823
650 653 657 659 661 664 666 668 671 675 680 686 690 694 698 702 707 712 717 720 725 729 732 735 739 743 747 751 755 757 758 760 762 763 766 768 771 773 775 777 779 781 784 786 788 790 792 795 797 798 800 802 803 805 807 808 810 812 814 816 818 820 821
643 646 650 652 655 658 661 663 666 670 675 680 684 688 692 697 701 706 710 715 720 723 727 731 735 739 744 747 750 752 755 757 758 760 762 765 768 769 771 773 776 778 781 782 785 787 789 791 793 795 797 799 801 802 803 805 806 808 810 812 815 817 819
640 643 645 647 649 652 655 660 664 669 673 676 679 683 687 691 695 700 705 709 714 718 722 727 732 736 740 743 745 748 751 753 754 756 758 761 763 765 767 770 772 775 777 779 781 783 785 787 789 792 794 795 797 798 799 800 802 804 807 809 812 815 817
637 640 642 644 646 649 654 659 664 667 670 672 676 679 682 686 690 694 699 703 707 712 718 723 728 732 735 738 741 744 746 748 750 751 753 756 758 760 763 766 768 771 773 775 777 779 781 783 786 788 789 791 792 793 795 797 800 802 804 807 810 813 815
634 636 640 643 645 650 653 657 661 663 666 669 673 677 679 682 685 689 693 697 702 707 713 719 723 727 730 733 736 739 741 743 745 746 748 751 754 756 759 761 763 766 768 770 772 775 777 779 781 783 785 787 788 790 792 796 799 801 803 806 807 810 813
630 631 636 640 643 648 651 654 658 660 663 665 668 672 675 677 681 684 688 693 697 702 708 714 719 722 726 729 732 734 736 738 739 741 744 746 749 752 754 756 759 761 763 766 769 771 773 775 777 779 781 783 785 788 792 794 797 800 801 803 804 806 809
627 631 635 638 641 645 648 652 655 657 660 662 665 670 673 675 678 681 685 689 694 699 704 708 713 717 721 724 727 730 731 732 734 736 739 742 745 747 749 751 754 756 759 763 765 767 769 771 773 776 779 781 784 787 790 792 794 796 797 799 801 803 805
632 635 638 641 643 644 647 651 654 656 659 660 663 667 670 674 677 679 683 687 690 694 698 703 708 712 716 720 722 724 725 728 730 732 735 738 740 742 744 747 750 753 757 760 761 764 766 768 771 774 777 779 782 785 787 789 790 791 792 794 796 799 801
637 637 639 641 642 642 644 647 650 653 656 658 660 663 666 670 672 675 678 681 685 689 693 697 702 706 710 714 716 719 721 723 726 728 730 733 734 737 740 744 748 751 753 755 758 761 764 767 770 772 775 777 780 782 783 785 786 787 789 790 792 795 797
638 640 641 641 642 642 643 645 648 650 653 655 657 658 661 665 667 670 673 676 680 684 687 692 695 699 704 707 710 714 717 719 721 723 725 727 730 733 737 741 744 747 750 752 755 758 762 765 767 770 772 774 777 779 780 781 782 784 786 787 789 792 794
636 638 639 638 639 640 641 642 644 647 649 651 652 654 657 659 662 666 669 672 674 677 682 686 688 693 697 701 706 709 712 714 716 718 720 722 726 729 733 738 741 744 747 749 752 755 759 762 764 767 769 772 774 776 777 778 779 781 783 787 791 796 797
633 634 634 634 634 636 637 638 639 641 642 644 646 649 651 653 657 661 663 665 668 672 677 680 682 686 690 695 700 703 706 709 710 712 715 717 722 726 730 734 737 740 743 745 749 753 756 759 762 764 767 769 772 774 775 776 777 779 782 786 794 802 804
629 632 633 632 630 630 632 633 634 635 635 638 641 642 645 648 651 654 656 660 664 668 671 674 677 680 684 688 692 695 699 702 704 707 710 713 718 723 726 730 733 736 739 743 747 750 753 757 760 762 765 767 769 771 772 774 776 778 780 784 791 800 804
621 625 629 628 626 626 626 627 629 630 630 633 636 638 642 645 647 649 652 656 660 663 665 667 670 674 677 681 685 688 692 695 698 702 705 710 715 718 722 726 729 732 736 740 743 746 749 752 754 757 760 764 767 768 769 771 773 775 778 781 786 792 796
613 616 620 622 622 621 620 620 621 622 623 626 631 634 638 640 642 646 649 651 654 657 659 662 664 667 670 674 677 681 684 687 692 696 700 705 710 713 718 721 724 728 732 736 739 742 745 748 749 752 755 759 762 764 765 767 768 771 774 777 780 785 789
608 610 611 613 615 615 615 616 616 617 619 621 625 630 632 635 638 641 644 647 649 652 654 656 659 661 663 665 668 672 676 680 685 690 696 701 704 708 712 716 720 725 728 732 735 738 741 744 746 749 751 754 757 758 759 761 764 767 771 773 775 779 782
605 604 605 606 608 609 611 613 613 615 618 620 622 625 627 630 633 636 639 642 644 647 649 650 652 654 656 657 660 664 669 674 679 685 690 695 699 703 708 712 717 721 724 727 731 734 737 739 742 745 747 749 752 754 756 759 761 765 768 770 772 774 777
605 602 601 600 602 604 605 607 608 610 613 615 618 620 622 625 628 630 633 635 637 641 642 643 645 647 648 650 653 658 663 669 674 680 685 690 695 699 704 709 713 717 720 723 726 729 732 735 738 741 743 746 749 752 755 758 760 763 765 767 770 771 773
607 605 602 598 597 598 599 601 603 605 607 609 611 613 616 619 622 624 627 629 631 633 634 635 637 638 641 644 649 654 659 664 669 674 680 686 691 697 702 706 710 713 717 720 724 727 730 733 736 738 741 745 748 751 754 757 759 761 763 765 767 769 771
606 605 605 602 597 594 596 599 601 602 604 605 607 610 612 615 618 619 620 622 625 625 626 627 630 634 638 642 646 651 655 660 666 671 678 684 689 694 699 703 707 711 715 719 723 726 729 732 734 738 741 744 746 749 751 754 757 760 762 763 765 767 769
609 607 607 606 602 598 596 597 599 601 602 602 603 605 608 610 612 614 615 617 618 619 621 624 628 633 637 640 645 649 654 660 665 670 677 683 687 692 698 702 706 710 714 718 722 724 727 730 734 737 740 742 744 747 749 752 755 758 760 762 763 765 768
618 616 612 609 608 606 603 603 605 607 607 606 605 606 607 609 609 609 611 614 614 616 621 625 629 633 637 641 646 650 655 660 664 669 675 680 685 690 696 701 705 709 713 717 719 722 726 729 732 735 737 739 742 744 747 750 754 757 759 760 762 764 767
623 622 619 615 613 610 608 609 610 611 612 611 611 612 614 616 617 615 612 610 613 617 622 627 632 635 639 643 647 652 656 660 663 668 673 678 683 688 694 698 703 707 711 714 716 720 723 726 729 731 734 736 739 742 746 749 752 755 757 759 761 764 767
625 624 623 620 617 613 611 610 610 612 614 614 614 616 617 620 626 629 626 618 614 618 624 631 637 641 644 647 650 654 658 661 664 667 671 675 680 685 691 696 700 705 709 712 715 718 720 723 727 729 731 734 736 740 744 748 751 754 756 759 761 763 766
628 625 624 622 619 617 615 613 612 614 616 618 619 620 621 622 625 635 643 637 623 618 625 636 645 651 655 657 659 662 665 668 671 673 676 680 682 685 690 695 699 704 709 712 715 718 720 723 726 728 729 732 734 738 743 747 750 753 755 758 761 763 766
631 628 626 625 623 621 620 618 617 617 619 623 624 623 625 626 627 635 647 648 635 624 624 632 645 655 663 668 671 673 676 678 681 684 685 684 684 686 691 695 700 704 709 713 716 720 722 724 726 727 728 730 734 738 742 745 749 752 754 757 759 762 764
634 631 630 628 626 624 623 623 623 621 622 625 627 626 627 629 632 639 647 650 648 640 633 634 641 650 660 669 674 676 678 682 684 686 685 684 685 688 692 696 700 704 708 713 717 720 722 724 726 727 728 730 734 738 742 745 748 750 752 755 757 759 762
636 634 633 632 629 626 625 625 626 624 623 625 627 628 629 631 635 641 647 651 655 654 649 646 647 649 655 664 670 672 675 679 681 682 682 684 686 690 693 697 699 703 707 711 716 720 722 724 726 727 728 731 734 737 741 744 746 748 751 753 755 757 759
636 635 634 634 633 630 629 629 629 628 628 627 626 627 631 633 637 642 649 655 659 660 657 655 656 655 656 661 666 669 671 675 678 680 682 684 687 691 696 700 703 705 707 711 716 720 722 724 726 727 729 731 734 737 739 742 744 746 750 752 753 755 757
637 635 634 634 634 632 631 631 632 633 633 632 630 630 631 632 635 642 649 656 661 663 660 659 661 661 659 660 664 667 670 674 678 681 684 686 689 692 696 701 707 709 710 711 715 718 721 723 725 727 729 732 734 736 739 741 743 746 748 750 752 754 757
641 638 637 636 635 635 634 632 632 635 638 637 635 634 634 633 635 641 648 654 659 662 662 661 663 662 661 661 665 668 672 676 679 682 686 688 691 693 696 701 706 710 711 713 715 717 719 721 723 726 728 731 734 736 738 740 742 745 747 749 751 754 756